Weather History for KAFJ - January, 2013

Change the Weather History Date:

Monday, January 28, 2013

  Actual Average Record
Temperature  
Mean Temperature 39 °F -  
Max Temperature 50 °F 35 °F - (-1)
Min Temperature 28 °F 19 °F - (-1)
Degree Days  
Heating Degree Days 26    
Moisture  
Dew Point 39 °F    
Average Humidity 91    
Maximum Humidity 100    
Minimum Humidity 64    
Precipitation  
Precipitation 0.00 in - - ()
Sea Level Pressure  
Sea Level Pressure 30.14 in    
Wind  
Wind Speed 5 mph (SW)    
Max Wind Speed 17 mph    
Max Gust Speed 25 mph    
Visibility 7 miles    
Events      
Averages and records for this station are not official NWS values.
T = Trace of Precipitation, MM = Missing Value Source: NWS Daily Summary

Daily Weather History Graph

Daily Weather History Graph

Search for Another Location

Airport or City:

Trip Planner

Search our weather history database for the weather conditions in past years. The results will help you decide how hot, cold, wet, or windy it might be!

Date:

Astronomy

Jan. 28, 2013 Rise Set
Actual Time 7:33 AM EST 5:35 PM EST
Civil Twilight 7:04 AM EST 6:04 PM EST
Nautical Twilight 6:31 AM EST 6:37 PM EST
Astronomical Twilight 5:59 AM EST 7:09 PM EST
Moon 7:28 PM EST (1/28) 7:58 AM EST (1/28)
Length of Visible Light 11h 00m
Length of Day
10h 02m
Full, 98% of the Moon is Illuminated
Jan 28
Full
Feb 3
Last Quarter
Feb 10
New
Feb 17
First Quarter
Feb 25
Full

Hourly Weather History & Observations

Time (EST) Temp. Windchill Dew Point Humidity Pressure Visibility Wind Dir Wind Speed Gust Speed Precip Events Conditions
12:15 AM 30.2 °F - 19.4 °F 64% 30.33 in 10.0 mi Calm Calm - N/A   Overcast
12:35 AM 28.4 °F - 21.2 °F 74% 30.32 in 10.0 mi Calm Calm - N/A   Overcast
12:55 AM 28.4 °F - 23.0 °F 80% 30.30 in 9.0 mi Calm Calm - N/A   Overcast
1:15 AM 28.4 °F - 21.2 °F 74% 30.29 in 7.0 mi Calm Calm - N/A   Overcast
1:35 AM 28.4 °F - 21.2 °F 74% 30.29 in 7.0 mi Calm Calm - N/A   Overcast
1:55 AM 28.4 °F - 24.8 °F 86% 30.28 in 7.0 mi Calm Calm - N/A   Overcast
2:15 AM 30.2 °F - 24.8 °F 80% 30.26 in 7.0 mi Calm Calm - N/A   Overcast
2:35 AM 30.2 °F - 26.6 °F 86% 30.26 in 6.0 mi Calm Calm - N/A   Overcast
2:55 AM 30.2 °F - 26.6 °F 86% 30.26 in 8.0 mi Calm Calm - N/A   Overcast
3:15 AM 30.2 °F - 28.4 °F 93% 30.25 in 5.0 mi Calm Calm - N/A   Overcast
3:35 AM 30.2 °F 25.4 °F 26.6 °F 86% 30.25 in 6.0 mi SSW 4.6 mph - N/A   Overcast
3:55 AM 30.2 °F 26.7 °F 28.4 °F 93% 30.25 in 6.0 mi South 3.5 mph - N/A   Overcast
4:15 AM 30.2 °F 26.7 °F 28.4 °F 93% 30.25 in 3.0 mi South 3.5 mph - N/A   Overcast
4:35 AM 30.2 °F 25.4 °F 28.4 °F 93% 30.25 in 4.0 mi South 4.6 mph - N/A   Overcast
4:55 AM 32.0 °F 27.5 °F 30.2 °F 93% 30.22 in 4.0 mi SSE 4.6 mph - N/A   Overcast
5:15 AM 32.0 °F 24.8 °F 30.2 °F 93% 30.21 in 6.0 mi South 8.1 mph - N/A   Overcast
5:35 AM 32.0 °F 27.5 °F 30.2 °F 93% 30.20 in 5.0 mi SSE 4.6 mph - N/A   Overcast
5:55 AM 32.0 °F 27.5 °F 30.2 °F 93% 30.20 in 4.0 mi SSE 4.6 mph - N/A   Overcast
6:15 AM 33.8 °F 29.6 °F 30.2 °F 87% 30.20 in 4.0 mi SSE 4.6 mph - N/A   Overcast
6:55 AM 33.8 °F 28.6 °F 32.0 °F 93% 30.19 in 8.0 mi SSE 5.8 mph - N/A   Overcast
7:15 AM 33.8 °F 30.8 °F 32.0 °F 93% 30.19 in 8.0 mi South 3.5 mph - N/A   Overcast
7:35 AM 33.8 °F - 32.0 °F 93% 30.19 in 7.0 mi Calm Calm - N/A   Overcast
7:55 AM 33.8 °F 30.8 °F 33.8 °F 100% 30.18 in 6.0 mi SSE 3.5 mph - N/A   Overcast
8:15 AM 33.8 °F 30.8 °F 33.8 °F 100% 30.17 in 4.0 mi South 3.5 mph - N/A   Overcast
8:35 AM 33.8 °F - 33.8 °F 100% 30.17 in 4.0 mi Calm Calm - N/A   Overcast
8:55 AM 35.6 °F - 33.8 °F 93% 30.16 in 4.0 mi Calm Calm - N/A   Overcast
9:15 AM 35.6 °F 32.8 °F 33.8 °F 93% 30.15 in 4.0 mi SSW 3.5 mph - N/A   Overcast
9:35 AM 37.4 °F 32.1 °F 35.6 °F 93% 30.14 in 5.0 mi SSW 6.9 mph - N/A   Overcast
9:55 AM 41.0 °F 36.4 °F 39.2 °F 93% 30.13 in 10.0 mi SSW 6.9 mph - N/A   Overcast
10:15 AM 42.8 °F 37.0 °F 39.2 °F 87% 30.13 in 10.0 mi SSW 10.4 mph - N/A   Overcast
10:35 AM 42.8 °F 37.5 °F 39.2 °F 87% 30.13 in 6.0 mi SSW 9.2 mph 17.3 mph N/A   Overcast
10:55 AM 42.8 °F 37.0 °F 39.2 °F 87% 30.12 in 5.0 mi SW 10.4 mph - N/A   Overcast
11:15 AM 42.8 °F 36.2 °F 39.2 °F 87% 30.11 in 5.0 mi SW 12.7 mph 18.4 mph N/A   Overcast
11:35 AM 42.8 °F 36.6 °F 41.0 °F 93% 30.12 in 8.0 mi SW 11.5 mph 17.3 mph N/A   Overcast
12:15 PM 44.6 °F 38.4 °F 41.0 °F 87% 30.10 in 8.0 mi SW 12.7 mph 16.1 mph N/A   Overcast
12:35 PM 44.6 °F 38.8 °F 42.8 °F 93% 30.09 in 10.0 mi SW 11.5 mph - N/A   Overcast
12:55 PM 44.6 °F 39.2 °F 42.8 °F 93% 30.08 in 9.0 mi SW 10.4 mph 19.6 mph N/A   Overcast
1:15 PM 44.6 °F 39.7 °F 42.8 °F 93% 30.07 in 10.0 mi SSW 9.2 mph - N/A   Overcast
1:35 PM 46.4 °F 41.1 °F 42.8 °F 87% 30.06 in 10.0 mi SW 11.5 mph 17.3 mph N/A   Overcast
1:55 PM 46.4 °F 40.4 °F 44.6 °F 93% 30.06 in 10.0 mi SW 13.8 mph 20.7 mph N/A   Overcast
2:15 PM 46.4 °F 40.7 °F 44.6 °F 93% 30.05 in 8.0 mi SW 12.7 mph - N/A   Overcast
2:35 PM 46.4 °F 40.1 °F 44.6 °F 93% 30.05 in 10.0 mi SW 15.0 mph 21.9 mph N/A   Overcast
2:55 PM 46.4 °F 41.1 °F 44.6 °F 93% 30.05 in 10.0 mi SW 11.5 mph 25.3 mph N/A   Overcast
3:15 PM 48.2 °F - 44.6 °F 87% 30.05 in 9.0 mi SW 17.3 mph 21.9 mph N/A   Overcast
3:35 PM 48.2 °F - 46.4 °F 93% 30.06 in 9.0 mi SW 13.8 mph 20.7 mph N/A   Overcast
3:55 PM 48.2 °F - 46.4 °F 93% 30.06 in 9.0 mi SW 13.8 mph 19.6 mph N/A   Overcast
4:15 PM 48.2 °F - 46.4 °F 93% 30.06 in 5.0 mi SW 11.5 mph 18.4 mph N/A   Overcast
4:35 PM 48.2 °F - 46.4 °F 93% 30.06 in 3.0 mi SW 10.4 mph 19.6 mph N/A   Overcast
4:55 PM 48.2 °F - 46.4 °F 93% 30.06 in 5.0 mi SW 13.8 mph 18.4 mph N/A   Overcast
5:15 PM 48.2 °F - 46.4 °F 93% 30.06 in 5.0 mi SW 11.5 mph 16.1 mph N/A   Overcast
5:35 PM 48.2 °F - 46.4 °F 93% 30.06 in 8.0 mi SW 13.8 mph - N/A   Overcast
5:55 PM 48.2 °F - 48.2 °F 100% 30.06 in 8.0 mi SW 11.5 mph 21.9 mph N/A   Overcast
6:15 PM 48.2 °F - 48.2 °F 100% 30.07 in 6.0 mi SW 9.2 mph - N/A   Overcast
6:35 PM 48.2 °F - 48.2 °F 100% 30.07 in 8.0 mi SW 13.8 mph - N/A   Overcast
6:55 PM 48.2 °F - 48.2 °F 100% 30.08 in 4.0 mi SW 10.4 mph - N/A   Overcast
7:15 PM 50.0 °F - 48.2 °F 94% 30.07 in 5.0 mi SW 12.7 mph 16.1 mph N/A   Overcast
7:35 PM 50.0 °F - 48.2 °F 94% 30.07 in 5.0 mi SW 12.7 mph 18.4 mph N/A   Overcast
7:55 PM 50.0 °F - 48.2 °F 94% 30.07 in 7.0 mi SW 12.7 mph - N/A   Overcast
8:15 PM 50.0 °F - 48.2 °F 94% 30.08 in 8.0 mi SW 11.5 mph 17.3 mph N/A   Overcast
8:35 PM 50.0 °F - 48.2 °F 94% 30.08 in 5.0 mi SW 10.4 mph - N/A   Overcast
8:55 PM 50.0 °F - 48.2 °F 94% 30.08 in 5.0 mi SW 9.2 mph - N/A   Overcast
9:15 PM 50.0 °F - 48.2 °F 94% 30.08 in 10.0 mi WSW 9.2 mph 17.3 mph N/A   Overcast
9:35 PM 50.0 °F - 48.2 °F 94% 30.09 in 10.0 mi WSW 10.4 mph 16.1 mph N/A   Overcast
9:55 PM 50.0 °F - 48.2 °F 94% 30.09 in 7.0 mi SW 10.4 mph - N/A   Overcast
10:15 PM 50.0 °F - 48.2 °F 94% 30.09 in 5.0 mi SW 6.9 mph - N/A   Overcast
10:35 PM 50.0 °F - 48.2 °F 94% 30.09 in 3.0 mi WSW 9.2 mph - N/A   Overcast
10:55 PM 50.0 °F - 48.2 °F 94% 30.09 in 3.0 mi WSW 8.1 mph - N/A   Overcast
11:15 PM 50.0 °F - 48.2 °F 94% 30.09 in 2.5 mi SW 6.9 mph - N/A   Overcast
11:35 PM 50.0 °F - 48.2 °F 94% 30.09 in 4.0 mi WSW 8.1 mph - N/A   Overcast
11:55 PM 50.0 °F - 48.2 °F 94% 30.09 in 4.0 mi SW 8.1 mph - N/A   Overcast